Location: Saddleback Butte
(34.6776°N, 117.8050°W)
Time: 06:24:42
(UTC-08:00)

Iridium 35 - Visible Passes

Search period start: 18 December 2014 00:00
Search period end: 28 December 2014 00:00
Orbit: 776 x 779 km, 86.4° (Epoch: 17 December)

Date Brightness Start Highest point End Pass type
(mag) Time Alt. Az. Time Alt. Az. Time Alt. Az.
18 Dec 6.5 03:58:20 34° ESE 03:58:20 34° ESE 04:01:55 10° SSE visible
18 Dec 6.5 05:38:54 17° WSW 05:38:54 17° WSW 05:41:02 10° SW visible
19 Dec 7.7 03:26:03 14° ESE 03:26:03 14° ESE 03:27:12 10° SE visible
19 Dec 6.3 05:06:36 24° SW 05:06:36 24° SW 05:08:53 10° SSW visible
19 Dec 7.8 17:54:27 10° WSW 17:57:36 16° WNW 18:00:45 10° NW visible
20 Dec 6.7 04:34:14 21° S 04:34:14 21° S 04:35:55 10° S visible
20 Dec 7.0 17:19:17 10° SW 17:23:50 30° W 17:28:24 10° NNW visible
21 Dec 7.5 04:01:49 13° SSE 04:01:49 13° SSE 04:02:21 10° SSE visible
22 Dec 8.2 17:57:06 10° W 17:57:53 10° WNW 17:58:41 10° WNW visible
23 Dec 7.6 17:20:12 10° SW 17:24:02 21° W 17:27:54 10° NNW visible
26 Dec 7.8 17:21:40 10° WSW 17:24:17 14° WNW 17:26:56 10° NW visible
